Location: Hilton Head Island
(32.2163°N, 80.7526°W)
Time: 22:12:28
(UTC-05:00)

Explorer 7 - Pass Details

Date: 23 February 2026
Orbit: 430 x 542 km, 50.2° (Epoch: 5 March)

Event Time Altitude Azimuth Distance (km) Brightness Sun altitude
Rises 18:57:49 0° 322° (NW) 2,516 10.7 -9.6°
Reaches altitude 10° 19:00:09 10° 334° (NNW) 1,658 9.5 -10.1°
Maximum altitude 19:03:28 29° 36° (NE) 937 7.7 -10.8°
Enters shadow 19:05:43 17° 86° (E) 1,336 8.1 -11.3°
Drops below altitude 10° 19:06:52 10° 97° (E) 1,714 - -11.5°
Sets 19:09:19 0° 109° (ESE) 2,618 - -12.0°
